Вернуться в каталог

STARLINK-2427

АктивенСвязьVLEO
NORAD 47837·PAYLOAD·🇺🇸 United States

Запущен Mar 11, 2021 с Cape Canaveral Space Force Station

Loading…

Ближайшие Пролёты (ближайшие 24 часа)

TLE

СвежийSource: CelesTrak SupGP

Эпоха: Sep 15, 2026, 00:27 UTC

1 47837C 21018BC  26258.01923611  .00058339  00000+0  18050-2 0  2588
2 47837  53.1587  77.8407 0000324 342.7368 337.9260 15.32904071    18

Отслеживайте STARLINK-2427 в реальном времени с AllMySat

Download on the App Store